User: anonymous   Login
Location: Capannuccia
(43.7000°N, 11.3000°E)
Time: 17:00:56
(UTC+00:00)
Language:

Cosmos 2227 Rocket - Orbit

View from above orbital plane
View from above orbital plane
View from above satellite
View from above satellite

Ground track
Ground track

The orbit data is extracted from the following two-line orbital elements,

1 22285U 92093B   20227.54957252 +.00000204 +00000-0 +12981-3 0  9994
2 22285 071.0229 310.6373 0004290 197.0471 163.0508 14.15047551425556
Epoch (UTC): 14 August 2020 13:11:23
Eccentricity: 0.0004290
inclination: 71.0229°
perigee height: 839 km
apogee height: 845 km
right ascension of ascending node: 310.6373°
argument of perigee: 197.0471°
revolutions per day: 14.15047551
mean anomaly at epoch: 163.0508°
orbit number at epoch: 42555

The dashed part of the orbit path shows where the satellite is in the earth's shadow,  

DLR